Weatherford, Texas, United States (76085)
Lat: 32.76N, Lon: 97.8W
Wx Zone: TXZ117
Local Info
Past Weather Observations for Saturday, September 27, 2014

NOTE: This archive is for the closest National Weather Service station to Weatherford. Information may differ from the station used for current weather conditions.

Click here for Long-term Archive

Time Weather Temperature Dewpoint Humidity Pressure Winds Precip Visibility
23:53
Clear
72°F / 22°C 57°F / 14°C 61% 30.04 in
(1017 mb)
SE 3.5 mph
(SE 6 kph)
- 10SM
22:53
Clear
72°F / 22°C 55°F / 13°C 57% 30.04 in
(1017 mb)
SE 4.6 mph
(SE 7 kph)
- 10SM
21:53
Clear
72°F / 22°C 55°F / 13°C 57% 30.04 in
(1017 mb)
SE 5.8 mph
(SE 9 kph)
- 10SM
20:53
Clear
75°F / 24°C 55°F / 13°C 50% 30.01 in
(1016 mb)
SE 6.9 mph
(SE 11 kph)
- 10SM
19:53
Clear
77°F / 25°C 55°F / 13°C 47% 30.01 in
(1016 mb)
SE 5.8 mph
(SE 9 kph)
- 10SM
18:53
Clear
79°F / 26°C 55°F / 13°C 45% 29.98 in
(1015 mb)
E 6.9 mph
(E 11 kph)
- 10SM
17:53
Clear
82°F / 28°C 55°F / 13°C 40% 29.98 in
(1015 mb)
SE 9.2 mph
(SE 15 kph)
- 10SM
16:53
Clear
86°F / 30°C 54°F / 12°C 33% 29.98 in
(1015 mb)
SE 12.7 mph
(SE 20 kph)
- 10SM
15:53
Partly Cloudy
88°F / 31°C 54°F / 12°C 31% 29.98 in
(1015 mb)
SE 12.7 mph
(SE 20 kph)
- 10SM
14:53
Mostly Cloudy
88°F / 31°C 55°F / 13°C 33% 29.98 in
(1015 mb)
Variable 6.9 mph
(Variable 11 kph)
- 10SM
13:53
Partly Cloudy
88°F / 31°C 54°F / 12°C 31% 30.01 in
(1016 mb)
Variable 6.9 mph
(Variable 11 kph)
- 10SM
12:53
Clear
84°F / 29°C 52°F / 11°C 33% 30.04 in
(1017 mb)
SE 9.2 mph
(SE 15 kph)
- 10SM
11:53
Partly Cloudy
82°F / 28°C 57°F / 14°C 42% 30.06 in
(1018 mb)
SSE 17.3 mph
(SSE 28 kph)
- 10SM
10:53
Partly Cloudy
82°F / 28°C 57°F / 14°C 42% 30.09 in
(1019 mb)
E 8.1 mph
(E 13 kph)
- 10SM
09:53
Clear
82°F / 28°C 61°F / 16°C 48% 30.09 in
(1019 mb)
ESE 5.8 mph
(ESE 9 kph)
- 10SM
08:53
Clear
77°F / 25°C 59°F / 15°C 54% 30.09 in
(1019 mb)
SE 4.6 mph
(SE 7 kph)
- 10SM
07:53
Clear
72°F / 22°C 57°F / 14°C 61% 30.09 in
(1019 mb)
SE 4.6 mph
(SE 7 kph)
- 9SM
06:53
Partly Cloudy
64°F / 18°C 55°F / 13°C 73% 30.06 in
(1018 mb)
Calm - 7SM
05:53
Clear
64°F / 18°C 55°F / 13°C 73% 30.06 in
(1018 mb)
Calm - 9SM
04:53
Clear
64°F / 18°C 55°F / 13°C 73% 30.06 in
(1018 mb)
Calm - 10SM
03:53
Clear
68°F / 20°C 55°F / 13°C 64% 30.06 in
(1018 mb)
ESE 5.8 mph
(ESE 9 kph)
- 10SM
02:53
Clear
68°F / 20°C 55°F / 13°C 64% 30.06 in
(1018 mb)
E 6.9 mph
(E 11 kph)
- 10SM
01:53
Clear
66°F / 19°C 54°F / 12°C 64% 30.06 in
(1018 mb)
ESE 3.5 mph
(ESE 6 kph)
- 10SM
00:53
Clear
70°F / 21°C 54°F / 12°C 57% 30.06 in
(1018 mb)
SE 3.5 mph
(SE 6 kph)
- 10SM
Time Weather Temperature Dewpoint Humidity Pressure Winds Precip Visibility


Weather for websites

WeatherForYou.com, LLC is not responsible for any damages or problems caused by this service. Current weather conditions are obtained from the closest station including government and personal stations which may have varying degrees of accuracy. Weather forecasts are derived from the NOAA NDFD. Like all things, this site belongs to Jesus Christ... He just trusts me to maintain it. If you have any questions or comments email webmaster@weatherforyou.com

Copyright © 2014, WeatherForYou.com LLC. All rights reserved.